CARTOSAT-2F (43111 NORAD) Tracking and Keplerian Element Data

This shows tracking and keplerian element data for the satellite.

Feedback or suggestion? Click here.




ElementValue
Catalog43111
NameCARTOSAT-2F
Epoch Orbit4721
Epoch Day323.15046547
Epoch Year2018
RAAN22.6208
Inclination97.4647
Eccentricity0.0002753
Argument of Perigee266.9426
Mean Anonmoly177.1728
Mean Motion15.19242667
Decay Rate6.07E-06
L11 43111U 18004A 18323.15046547 .00000607 00000-0 32030-4 0 9997
L22 43111 97.4647 22.6208 0002753 266.9426 177.1728 15.19242667 47211

Live tracking and technical data element details for CARTOSAT-2F (NORAD 43111). CARTOSAT-2F can be tracked NOW for your location showing map with azimuth and elevation plus other details from your city location.

Track the satellite on the map from your city or location and see movement details for azimuth, elevation, latitude, longitude, range, height, and movement on the map or in text.







IsCatalogInMostPopularTable: catalog: 43111, numindb: 115
Update: records affected: 1



GetName: 43111 CARTOSAT-2F

Hit Count: updated at: Mon, 19 Nov 2018 12:00:11 GMT